Location: Gad�tanya
(48.0500°N, 20.8500°E)
Time: 11:56:06
(UTC+00:00)

Cosmos 2219 Rocket - Pass Details

Date: 05 July 2020
Orbit: 827 x 848 km, 71.0° (Epoch: 14 August)

Event Time Altitude Azimuth Distance (km) Brightness Sun altitude
Exits shadow 20:30:16 - 204° (SSW) 3,356 5.0 -13.4°
Rises 20:30:16 0° 204° (SSW) 3,353 5.0 -13.4°
Reaches altitude 10° 20:32:41 10° 205° (SSW) 2,425 4.3 -13.6°
Maximum altitude 20:38:15 88° 116° (ESE) 837 2.1 -14.1°
Drops below altitude 10° 20:43:53 10° 28° (NNE) 2,452 5.1 -14.5°
Sets 20:46:20 0° 28° (NNE) 3,392 5.8 -14.7°
